Location: ???????
(55.4362°N, 38.1183°E)
Time: 16:20:07
(UTC+00:00)

DNEPR-1 R/B - Pass Details

Date: 17 June 2021
Orbit: 588 x 1334 km, 64.6° (Epoch: 29 July)

Event Time Altitude Azimuth Distance (km) Brightness Sun altitude
Rises 19:31:55 0° 310° (NW) 2,863 8.4 -7.3°
Reaches altitude 10° 19:34:16 10° 303° (WNW) 1,931 7.1 -7.5°
Maximum altitude 19:38:14 40° 233° (SW) 883 4.3 -7.7°
Drops below altitude 10° 19:42:18 10° 164° (SSE) 1,974 5.5 -8.0°
Enters shadow 19:42:19 10° 164° (SSE) 1,983 5.5 -8.0°
